CAPE
350 699 564 438 625 639 562 978 1453 1979 2786 2957 2863 3130 3032 2784 3273 2770 2500 2743 2506 1851 837 822 3182 3064 3087 2715 3129 3224 3223 2863 2374
225 447 899 1044 844 1122 1613 1496 1459 1856 2787 3076 2992 2884 3107 3362 3060 2922 2406 2479 2907 2259 3250 1577 1889 2552 2700 3157 2603 2527 2777 2564 2780
439 840 953 1178 1198 1206 1413 1817 1792 1793 2789 3005 3086 2653 3137 3306 3340 3140 2934 3555 3176 2524 2352 3160 2355 2355 1521 2545 1546 2743 2492 2362 2045
179 729 1097 1593 1591 1632 1577 1768 2107 2107 2726 2937 3214 2743 2881 3001 3118 3267 3232 3093 3495 3343 3511 3886 2944 3037 2511 2380 2580 2948 2772 2094 2012
0 235 1517 1817 2010 2063 1998 1964 1965 2299 2656 2971 3045 2903 2932 2991 3485 3245 3247 3234 3295 3692 3244 3364 3430 3457 2969 2711 3039 2856 2999 2196 1593
19 1608 1833 1881 2008 2728 2348 2267 2284 1897 2615 2562 2616 3011 3270 3262 3291 3155 3110 3100 3134 3394 3467 3113 2860 3190 3234 3216 2863 2632 3192 2636 2317
212 2133 2417 2346 2340 2655 3015 3452 3789 3527 2831 2468 3324 3124 3538 2829 2997 2982 2937 3077 3215 3196 3446 3153 3019 2692 2712 2749 3061 2953 2678 2431 2540
1436 1955 2037 2728 3096 3453 3766 3891 3654 3546 3380 3484 3708 3618 3315 2972 2575 2779 2604 2542 3118 3132 2967 2760 2914 2959 2613 2686 2495 2495 2684 2460 2426
1751 1840 2054 2821 3491 3495 3493 3587 3824 3601 3626 3775 3610 3621 3059 3102 3163 2790 2438 2212 1909 2131 2807 2941 2717 2901 2783 2640 2355 1568 1239 1846 2340
932 1619 1862 2505 2960 3256 3439 3434 3471 3539 3560 3674 3485 2816 2846 2666 2535 2711 3037 2319 2002 1955 1696 1230 1878 2088 2611 2834 2721 1889 872 350 2034
0 238 2250 2589 2123 2720 2575 2512 2554 2813 2867 3028 2833 2190 1909 1452 1821 1839 1908 2001 2154 2462 2240 1329 1111 1325 1775 2243 2483 2253 1402 480 750
0 515 2221 2522 2448 2828 2329 2426 1640 2077 2330 2227 1919 1904 1168 712 648 544 494 464 601 747 919 1065 1931 2009 2063 2159 2386 1888 1041 12 1090
1050 1112 2097 2203 1860 1915 1553 1496 1075 1124 1734 1657 799 720 519 202 6 6 5 9 1 0 0 1 102 511 1694 1873 2169 1985 1094 0 1214
727 1366 1383 1169 1589 1598 1655 862 778 969 1208 576 389 146 3 1 1 1 4 8 11 7 11 10 13 6 65 600 1944 1970 1310 3 647
847 970 927 605 1010 1130 450 611 406 663 320 342 201 8 4 3 3 1 2 6 4 4 5 8 6 10 15 51 764 1289 893 0 7
563 640 841 329 674 512 150 57 353 639 410 510 81 8 2 3 5 5 4 4 4 5 5 5 9 8 33 245 82 77 1 1 1
494 454 546 297 317 135 31 18 67 562 331 289 158 50 5 5 3 5 4 3 5 4 2 1 4 4 4 1 1 1 1 2 2
714 341 165 78 53 32 4 49 280 493 563 388 146 55 2 2 2 5 5 5 1 3 3 1 1 2 1 1 0 1 1 0 0
495 273 200 146 78 20 20 189 493 447 580 434 154 26 2 0 3 2 5 6 4 0 0 0 0 0 0 1 0 1 1 1 1
251 124 123 96 65 71 60 280 478 692 656 286 414 33 10 0 1 2 2 1 3 7 1 0 0 1 1 1 1 1 1 1 0
CIN
-169 -17 -10 -65 -111 -65 -79 -25 -20 -28 -34 -13 -2 -1 -2 -14 -3 -5 -8 -4 -5 -58 -111 -158 -20 -22 -10 -16 -7 -7 -7 -6 -13
-334 -193 -21 -7 -18 -12 -18 -23 -33 -26 -39 -31 -12 -7 -1 -2 -4 -4 -4 -16 -17 -11 -14 -34 -54 -34 -27 -8 -22 -31 -11 -10 -9
-106 -4 -3 -5 -5 -15 -16 -9 -16 -19 -33 -41 -29 -28 -4 -1 0 -4 -14 -10 -5 -17 -22 -19 -47 -36 -47 -22 -38 -12 -19 -24 -35
-247 -8 -2 -10 -8 -26 -31 -19 -4 -13 -20 -33 -16 -18 -8 -2 -2 -1 -3 -6 -4 -8 -9 -9 -31 -27 -38 -10 -20 -10 -16 -23 -18
0 -333 -3 -11 -3 -22 -30 -24 -1 -4 -4 -8 -15 -17 -14 -6 -5 -5 -1 -3 -3 -3 -12 -14 -10 -10 -15 -22 -7 -12 -11 -9 -14
-123 -21 -3 -2 -3 -6 -30 -17 -8 -24 -8 -13 -10 -13 -11 -6 -7 -7 -5 -14 -14 -12 -9 -9 -8 -5 -6 -6 -18 -15 -8 -9 -12
-349 -3 -4 -2 -2 -3 -4 -8 -6 -3 -18 -29 -9 -9 -7 -30 -18 -10 -6 -13 -11 -8 -13 -8 -7 -13 -5 -3 -1 -5 -6 -12 -8
-49 -17 0 -2 -3 -3 -6 -9 -7 -6 -1 -2 -3 -4 -17 -17 -21 -11 -16 -28 -18 -16 -13 -6 -6 -8 -15 -4 -2 -1 -4 -6 -9
-1 -11 -1 -1 -2 0 -1 -1 -1 0 0 -1 -1 -1 -7 -7 -5 -11 -15 -21 -36 -26 -5 -6 -10 -2 -3 -10 0 -13 -22 -20 -7
-34 -2 -1 -1 0 0 -1 0 -1 0 -1 -1 0 -5 -7 -1 -1 -2 -1 -8 -17 -20 -30 -45 -19 -9 -4 -3 -4 -10 -60 -143 -16
0 -311 -6 -4 -2 -1 -2 -7 -4 -1 0 0 0 -8 -13 -25 -6 0 -1 0 0 0 -5 -39 -39 -5 -12 -7 -5 -1 -37 -113 -97
0 -153 -9 -6 -3 -3 -3 -4 -52 -1 0 0 0 -1 -28 -62 -52 -58 -66 -70 -48 -33 -13 -14 -5 -2 -3 -3 -1 -6 -50 -85 -63
-30 -38 -9 -5 -1 -18 -14 -40 -61 -41 0 -1 -28 -28 -41 -83 0 0 0 0 0 -1 0 0 -136 -75 -4 -5 -3 -3 -57 0 -71
-40 -11 -36 -28 -3 -1 -1 -37 -50 -10 -5 -17 -41 -59 -4 0 0 0 0 0 0 0 0 0 0 0 -103 -43 -3 -2 -28 -48 -89
-24 -30 -54 -42 -4 -6 -67 -38 -62 -3 -28 -10 -12 -3 0 0 0 0 0 0 0 0 0 0 0 0 0 -163 -18 -9 -49 0 -9
-21 -10 -6 -51 -30 -56 -122 -131 -5 -1 -7 -3 -20 0 0 0 0 0 0 0 0 0 0 0 0 -1 0 -64 -3 -2 0 0 0
-6 -26 -16 -51 -54 -106 -188 -149 -107 -3 -22 -31 -55 -29 0 0 0 0 0 0 0 0 0 0 0 0 -8 0 0 0 0 0 0
-14 -47 -83 -131 -145 -156 -31 -106 -12 -3 -1 -7 -9 -27 0 0 0 0 0 0 0 0 0 0 0 0 0 0 0 0 0 0 0
-28 -47 -64 -89 -117 -168 -22 -10 0 -8 -1 -2 -7 -47 0 0 0 0 0 0 0 0 0 0 0 0 0 0 0 0 0 0 0
-87 -99 -82 -80 -93 -88 -73 -8 0 0 0 -2 -3 -32 0 0 0 0 0 0 0 0 -2 0 0 0 0 0 0 0 0 0 0
Wind_Speed
11 18 20 27 25 22 18 18 17 19 18 16 16 14 13 12 10 7 7 8 5 9 9 6 4 6 7 7 6 5 5 4 4
25 32 23 22 19 18 15 17 16 16 19 17 16 15 13 12 11 11 9 9 7 7 7 7 7 8 6 6 8 8 7 4 5
20 19 13 17 16 19 15 14 14 15 18 18 16 15 14 12 13 12 11 6 6 8 7 6 7 6 5 7 5 7 7 6 8
8 16 13 14 12 16 15 12 13 13 16 16 14 14 13 13 13 13 12 10 8 8 6 5 6 9 10 9 8 7 7 7 6
15 25 11 13 10 17 16 14 13 14 12 15 14 12 10 12 11 12 13 12 10 8 9 7 6 6 7 7 6 6 6 7 8
22 12 10 12 11 9 15 14 11 13 13 12 13 12 12 12 12 11 11 12 11 10 10 10 10 9 8 8 8 7 6 8 8
19 13 10 10 11 8 7 9 8 6 10 9 10 12 11 11 9 11 10 10 11 12 10 11 11 11 10 11 11 10 10 9 9
26 15 13 12 12 10 8 8 6 4 3 4 5 6 6 7 8 9 9 7 6 8 10 11 12 11 11 11 12 11 12 11 11
16 13 13 12 13 11 10 9 7 6 4 5 2 4 2 4 6 6 7 10 10 8 9 10 10 12 13 13 11 15 18 17 13
7 13 15 13 11 10 10 9 8 7 6 5 4 2 3 2 1 3 5 6 7 9 10 8 9 14 14 15 14 15 13 15 13
14 24 15 14 10 9 7 7 7 8 6 5 4 4 5 4 5 5 6 5 5 7 6 7 10 16 18 15 13 14 16 13 10
24 24 18 12 11 11 7 7 5 4 7 6 4 7 8 7 7 8 8 9 9 9 8 8 10 13 15 15 15 14 16 13 12
10 10 13 10 12 12 9 8 6 5 6 6 9 7 7 9 8 7 8 9 9 9 10 12 10 13 13 17 16 16 15 12 10
11 13 11 8 10 9 9 6 7 4 7 9 8 8 9 7 7 7 8 9 8 8 9 11 13 15 15 15 14 15 15 17 12
12 12 10 8 8 10 7 8 6 5 9 8 7 9 8 7 8 9 8 10 9 10 10 11 12 14 14 13 13 11 11 13 16
7 8 10 6 11 11 8 7 2 8 8 8 10 9 8 9 10 11 10 10 9 6 8 8 11 10 11 10 3 3 5 7 5
7 6 6 6 10 9 9 5 3 7 8 11 9 9 9 9 11 10 11 9 7 6 7 7 7 8 1 3 3 3 3 3 3
8 7 5 5 7 8 8 6 6 9 11 10 8 9 9 10 9 8 8 7 9 7 7 7 5 6 5 3 4 2 6 7 7
7 7 5 6 6 8 8 9 8 7 10 8 7 9 8 8 7 7 7 7 8 15 17 22 20 22 14 8 10 14 20 20 20
10 9 5 6 7 6 7 6 10 9 9 8 4 9 7 9 8 7 6 7 9 8 11 15 25 22 23 22 20 17 19 23 23
Wind_Direction
22 209 185 169 181 187 165 182 160 160 166 176 187 186 194 198 212 222 208 214 185 169 212 237 198 183 191 216 178 228 200 187 242
167 231 184 179 178 164 162 158 163 164 166 175 186 196 193 192 204 214 222 223 198 210 193 208 169 182 223 212 231 181 214 217 250
246 168 179 162 163 159 157 160 165 169 167 176 186 194 195 197 199 206 227 241 215 222 233 217 161 172 218 227 230 208 199 201 236
287 130 146 143 156 148 159 167 167 173 166 175 183 198 196 201 200 203 212 225 222 218 247 210 214 186 199 221 209 198 190 242 262
31 292 139 137 153 150 154 163 187 171 176 174 184 191 204 199 200 205 202 212 220 216 216 228 230 249 223 227 245 229 193 211 254
219 186 140 139 148 143 151 163 183 171 182 182 186 193 194 208 207 203 215 211 216 210 209 220 226 224 227 225 228 240 211 202 226
251 133 137 138 146 142 128 139 147 149 171 189 182 191 190 200 214 219 217 212 204 213 206 209 220 228 221 221 226 226 230 216 221
185 144 154 147 137 131 119 112 120 146 173 170 176 189 191 212 218 236 235 254 253 234 219 217 218 219 227 228 220 224 220 217 217
144 150 147 139 126 136 138 139 142 154 166 149 213 170 178 180 216 241 249 259 253 265 248 233 222 223 222 220 227 221 218 210 213
231 164 139 130 133 143 137 141 139 137 133 97 116 82 44 338 338 278 237 241 263 271 266 271 286 268 247 237 228 233 228 211 215
57 277 127 121 131 114 118 130 156 140 143 142 131 106 70 34 9 345 340 318 284 276 258 222 222 254 251 241 240 228 224 217 228
173 243 125 122 122 119 138 109 94 132 128 116 135 79 56 32 6 346 333 318 312 306 299 279 243 238 244 242 242 231 230 220 228
104 94 90 118 130 124 149 120 149 166 150 121 79 72 54 43 17 353 332 324 320 313 305 291 282 278 256 237 240 231 218 216 227
108 102 116 135 126 138 129 150 132 176 96 87 75 69 60 43 17 349 346 330 315 303 293 281 276 278 271 265 241 233 214 203 220
121 127 120 149 146 119 97 86 115 102 101 112 100 89 78 52 32 13 0 341 327 317 298 278 268 259 261 252 258 230 209 205 215
129 145 151 188 103 121 125 127 192 138 147 112 100 96 78 56 39 26 11 358 338 326 326 297 288 242 244 244 31 38 67 208 231
154 130 115 105 126 137 137 137 209 170 140 114 120 110 95 76 57 44 28 15 356 344 342 325 323 336 28 47 37 29 40 87 110
108 129 149 143 157 155 141 180 185 173 141 138 136 112 105 91 75 63 41 41 25 6 13 16 348 342 1 44 51 28 83 98 93
132 138 124 155 159 158 169 182 174 185 146 143 147 123 109 99 94 75 67 51 49 35 30 28 36 47 44 26 38 93 89 86 86
120 133 162 164 155 159 162 196 173 162 148 154 160 108 114 118 113 108 90 68 54 44 25 30 36 34 57 49 50 38 69 85 82